Wind_Speed
9 9 8 8 9 9 10 11 12 10 7 4 3 4 4 4 3 2 0 2 3 3 3 4 4 4 3 3 2 0 1 3 5 6 7 8 8 9 9 9 10 10 10 10 10 9 8 7 7
12 11 11 11 11 11 10 12 12 10 11 7 4 3 3 3 2 1 2 3 3 4 4 4 4 4 3 2 1 1 3 4 6 7 8 8 9 9 10 10 10 10 11 11 10 10 9 8 7
15 14 13 12 12 12 12 13 11 10 11 9 6 4 4 4 3 3 4 3 3 3 3 4 4 4 3 2 2 3 4 5 7 8 8 9 9 9 10 10 11 11 12 12 12 11 10 9 8
17 16 15 13 12 14 14 15 15 15 16 12 8 5 4 6 5 5 4 4 4 3 3 3 3 3 3 3 3 4 6 6 7 8 8 9 10 10 11 11 12 12 13 13 13 13 12 11 9
19 18 16 14 13 17 20 19 18 19 18 13 8 5 6 7 6 6 5 5 4 4 4 3 3 3 3 4 5 6 7 7 8 9 10 10 11 12 13 13 14 14 14 14 14 14 14 12 11
20 19 17 14 15 18 20 21 20 20 21 18 13 7 7 8 7 6 6 5 5 4 4 3 3 3 4 5 6 8 9 9 10 11 12 12 12 13 14 15 16 16 16 16 16 16 16 15 13
20 19 17 15 16 17 18 19 21 24 24 22 17 10 8 9 8 7 6 5 4 3 3 3 4 5 6 7 8 9 10 11 12 13 14 14 15 15 16 16 17 17 18 17 17 18 18 17 15
20 20 18 17 19 20 19 20 22 23 24 22 19 13 10 10 9 8 7 5 5 4 4 5 6 6 8 9 10 11 12 13 14 15 15 16 17 16 16 16 17 17 17 18 18 18 18 18 17
19 19 17 20 22 22 21 22 24 25 24 24 23 18 12 11 11 9 6 6 6 6 5 6 7 8 9 10 12 12 13 13 15 15 16 16 15 15 16 16 16 15 15 16 17 18 18 18 18
16 16 16 20 22 23 22 24 25 27 27 27 25 19 15 11 12 12 9 8 7 7 6 7 9 10 10 12 12 13 13 13 14 14 15 14 13 13 15 16 16 15 15 15 15 16 17 18 19
11 10 12 16 20 22 23 25 27 29 28 27 23 21 19 15 13 12 10 8 7 8 7 8 10 11 11 12 13 13 12 13 13 13 13 13 13 13 14 14 15 15 15 15 15 15 15 17 18
9 7 8 11 16 20 24 26 27 29 28 26 24 24 22 16 13 12 9 8 8 8 9 10 11 12 12 12 12 12 12 12 12 12 12 12 13 13 13 13 14 15 15 15 15 15 15 16 17
11 10 9 10 13 18 22 24 25 25 25 25 24 20 19 17 17 15 12 10 9 9 10 11 12 12 11 11 11 11 11 11 11 11 11 11 12 12 12 13 14 15 15 15 15 16 16 16 16
12 12 12 13 15 17 18 20 20 20 20 20 18 16 16 17 16 13 11 9 9 9 10 11 11 11 10 9 8 8 8 9 9 9 9 10 11 11 11 12 13 14 15 15 16 17 17 17 17
12 12 13 14 15 16 17 17 17 17 17 18 17 15 14 14 14 12 10 10 10 10 10 10 9 8 8 7 7 7 7 8 8 9 10 10 11 11 12 13 14 14 14 15 15 16 17 18 18
14 15 16 16 17 16 14 14 15 14 14 13 12 13 13 13 12 12 9 9 9 9 9 8 7 7 7 6 6 5 6 7 8 10 10 10 10 11 12 12 12 13 13 14 15 15 16 17 17
16 18 19 19 17 15 14 15 14 13 12 9 9 8 11 12 12 13 9 8 8 7 7 7 6 6 6 6 5 4 5 7 8 9 9 9 9 10 11 11 12 12 13 13 14 14 15 16 16
19 20 20 20 18 16 15 14 12 11 9 6 4 3 6 7 7 9 8 7 7 7 7 7 6 5 5 5 4 4 5 6 7 8 8 9 9 10 11 11 12 12 12 12 13 13 13 14 15
20 21 22 19 18 16 15 15 12 10 7 4 2 1 3 4 6 6 6 5 5 5 6 5 5 4 4 4 4 4 5 6 6 8 9 9 9 10 10 11 11 12 12 12 12 12 13 13 14
17 19 20 20 19 17 15 14 13 10 6 4 3 0 2 4 3 3 3 3 4 4 4 4 4 4 3 3 3 4 4 5 6 7 8 9 9 9 10 11 11 11 12 12 12 12 12 13 13
16 17 18 19 19 17 14 13 11 9 7 5 3 1 2 3 4 2 2 2 3 4 4 4 4 3 3 2 2 3 4 5 6 7 8 8 9 10 11 11 12 12 12 12 13 13 13 13 13
15 15 15 16 17 15 11 9 10 9 10 8 5 4 3 3 4 3 3 3 3 3 3 4 3 2 2 2 2 3 4 5 5 6 8 9 10 11 12 12 12 13 13 13 14 14 15 15 15
13 12 12 13 15 13 9 8 9 10 10 10 8 7 5 4 3 3 3 4 3 3 3 3 3 2 1 1 2 3 4 5 6 7 9 10 11 12 13 13 13 14 15 15 15 15 15 16 17
12 11 10 10 11 10 7 8 9 9 10 10 10 10 8 6 4 4 4 4 4 3 3 3 3 2 1 1 2 3 5 6 7 8 9 10 12 13 14 15 15 15 16 16 16 17 17 18 18
12 12 11 10 10 10 6 6 8 8 9 10 9 9 9 7 5 4 4 4 3 3 3 3 3 2 2 2 4 5 6 8 9 10 11 12 13 14 15 16 16 17 17 17 18 19 19 20 21
12 12 11 11 10 9 7 5 6 7 8 9 8 7 7 6 4 3 3 2 2 3 3 3 3 2 3 4 5 6 8 9 10 12 13 13 14 14 15 16 17 18 18 19 20 21 22 23 24
13 11 12 13 11 8 4 4 4 5 7 7 6 5 5 3 2 2 1 2 3 3 4 4 4 4 5 6 7 8 9 10 11 13 14 15 15 16 17 17 18 19 20 21 22 23 25 25 26
14 14 13 13 12 10 7 6 4 4 6 6 5 3 2 2 1 1 1 2 3 3 4 4 5 5 6 7 9 10 11 12 13 14 15 16 17 18 19 20 21 21 22 23 24 25 26 27 28
17 17 15 14 13 13 11 8 7 7 6 6 4 3 2 1 1 1 2 3 4 5 5 6 6 7 8 9 11 12 13 14 15 16 17 18 19 20 21 22 23 24 25 26 27 28 29 31 32
19 19 16 15 14 15 14 13 10 10 9 8 7 6 5 4 3 3 3 4 5 6 7 8 9 10 11 12 14 15 16 17 18 18 19 20 21 22 23 24 25 26 27 28 30 32 33 34 35
Wind_Direction
306 302 300 298 297 297 291 290 288 282 274 240 266 324 359 8 8 24 187 209 209 180 163 162 160 154 148 140 133 102 308 308 306 307 307 309 312 313 315 316 316 316 318 318 319 321 323 328 332
299 298 296 296 298 292 284 294 287 271 264 241 216 272 308 323 319 281 236 228 206 181 169 171 170 171 165 164 188 267 288 296 299 299 301 303 305 306 309 309 309 310 311 312 311 311 313 315 317
295 295 293 296 300 290 284 295 291 281 263 241 215 232 259 268 263 243 232 220 197 186 188 188 180 180 181 190 224 266 280 289 293 294 295 298 300 301 304 305 305 306 307 306 304 302 302 304 305
291 289 289 292 292 283 283 284 291 292 277 257 219 207 258 247 228 227 230 207 188 188 190 190 187 195 208 230 251 268 276 283 287 288 288 290 293 293 295 298 299 302 303 302 300 297 295 296 296
289 287 286 287 283 280 282 285 294 295 292 276 236 214 242 258 228 216 224 203 187 188 192 193 205 226 244 262 271 274 277 280 285 285 283 285 285 286 288 291 292 295 296 295 294 292 291 290 288
287 286 283 281 276 276 283 291 297 291 296 290 272 237 231 251 226 211 212 208 193 190 203 227 245 261 272 281 283 281 281 282 282 284 283 284 284 284 285 286 287 287 289 288 286 286 285 285 283
285 284 280 274 264 261 275 287 295 295 298 296 286 261 243 245 226 209 205 205 202 203 227 263 277 281 281 280 280 281 283 283 283 282 283 284 283 283 283 283 284 284 282 284 283 281 280 280 280
284 280 272 265 255 253 267 279 285 289 294 290 286 271 240 229 226 220 214 215 224 237 258 281 282 281 281 280 280 282 282 283 285 282 282 284 283 281 280 280 282 284 281 280 281 279 277 276 275
285 276 264 254 251 251 260 271 277 281 283 291 291 281 259 233 225 227 224 230 236 248 264 280 279 281 278 277 278 281 282 284 287 282 279 281 281 279 278 279 279 280 282 281 280 279 276 274 272
284 275 263 251 251 253 259 269 275 278 279 285 283 273 267 248 227 220 231 232 245 257 270 283 285 280 279 281 281 282 284 285 284 279 277 279 281 280 280 279 278 280 283 284 282 279 278 274 272
294 280 262 252 254 259 264 270 275 276 282 282 276 269 269 252 231 226 232 227 245 263 275 279 285 283 283 281 282 282 283 280 279 280 278 279 281 281 283 283 281 280 281 282 281 281 279 276 275
327 319 294 275 270 270 270 273 276 279 281 279 276 274 267 250 249 243 239 235 250 266 275 284 285 285 285 281 278 279 278 279 280 283 282 283 284 284 283 285 284 282 280 280 281 281 280 279 277
3 0 336 313 298 288 280 280 280 283 280 278 275 269 259 256 256 247 237 232 246 264 276 281 285 288 286 280 276 276 277 281 285 285 286 288 289 289 287 286 285 284 282 281 281 281 280 278 277
14 5 350 330 315 306 296 286 283 286 284 282 276 263 255 254 247 238 237 246 252 260 268 276 280 281 282 282 281 281 281 283 288 292 295 297 297 296 295 292 290 289 287 285 283 281 280 279 277
12 6 355 340 330 321 311 301 295 292 291 286 275 267 251 244 236 236 239 243 253 257 265 274 279 279 283 289 291 288 287 290 294 298 302 303 303 301 300 298 295 293 290 287 285 282 280 278 277
6 6 358 346 338 330 326 324 315 307 301 291 279 261 244 233 235 224 231 236 246 252 259 272 280 284 290 297 298 292 290 296 299 302 305 307 308 307 305 304 302 299 296 293 291 287 284 282 279
3 3 357 348 342 333 329 330 328 328 318 307 285 258 232 226 226 215 217 226 239 241 255 269 279 287 296 301 297 296 302 304 304 305 306 309 312 312 312 311 309 307 304 301 297 292 288 285 283
1 355 349 349 348 344 341 343 341 341 340 322 278 231 207 209 204 209 213 220 238 244 258 268 272 283 290 297 306 314 314 310 310 311 313 316 318 319 319 317 314 311 308 305 301 297 294 291 288
353 346 342 347 349 347 345 349 350 349 347 337 337 173 188 187 183 192 208 224 233 240 252 263 258 265 280 291 305 316 315 314 317 318 319 320 321 321 320 319 318 315 313 310 308 304 300 296 293
341 337 340 346 349 350 347 349 354 2 6 6 9 153 180 165 170 184 208 211 220 229 235 246 252 262 273 283 302 314 318 319 322 323 324 326 325 323 323 323 321 317 315 313 311 309 307 304 300
333 335 345 352 354 351 353 355 359 22 31 32 43 77 139 147 160 166 180 206 201 212 225 233 241 243 260 276 299 320 327 327 327 325 325 326 327 328 327 325 324 322 320 316 312 310 309 306 303
333 342 354 356 355 353 358 16 38 46 45 52 57 53 86 126 141 155 165 170 176 193 211 212 207 231 241 271 308 328 332 331 329 330 331 330 329 329 328 327 325 324 322 319 315 311 308 305 302
332 341 348 355 0 5 25 56 59 56 55 58 59 59 76 103 128 148 157 160 167 175 186 196 206 216 232 280 314 336 342 340 337 337 337 334 331 330 331 332 329 326 322 319 316 314 310 307 304
328 330 334 340 348 4 42 63 63 61 63 62 63 66 75 89 106 129 138 151 163 175 192 201 197 201 231 286 318 336 342 342 341 340 339 337 335 333 332 332 329 327 324 321 317 315 312 310 307
325 324 321 328 344 356 25 60 58 59 62 61 61 68 73 78 94 117 136 146 162 182 195 197 202 217 259 299 317 328 335 337 337 337 337 336 335 333 332 330 328 326 324 321 318 316 315 312 309
319 315 313 320 335 350 11 46 53 57 56 57 57 60 67 73 84 109 130 152 181 203 214 222 232 257 283 300 313 324 330 332 333 333 333 332 331 330 328 327 326 325 323 320 317 315 314 312 311
315 310 300 301 307 326 354 21 32 39 37 41 49 57 62 76 91 113 160 184 199 215 229 241 256 270 285 298 311 320 324 326 328 329 329 329 327 326 325 323 322 322 321 319 317 315 314 313 311
294 296 287 280 286 295 301 313 340 360 6 14 18 28 43 66 109 219 230 230 239 247 252 260 269 278 290 302 311 315 317 320 321 323 324 323 323 322 321 320 318 317 317 317 316 315 314 314 312
284 285 281 273 274 282 287 292 303 316 328 339 344 351 358 354 267 253 251 257 260 266 271 276 283 289 296 301 306 310 312 313 315 316 318 318 318 317 316 316 315 314 314 314 314 314 313 312 311
279 283 280 270 262 268 275 283 295 305 310 315 322 320 323 327 312 290 273 271 275 282 286 290 294 298 300 301 303 306 307 308 309 311 312 313 313 311 311 312 312 312 312 312 313 312 312 311 310
Height
5924 5923 5922 5922 5922 5921 5920 5918 5916 5914 5910 5908 5908 5910 5912 5915 5916 5917 5915 5913 5912 5912 5912 5912 5913 5913 5913 5914 5914 5914 5914 5914 5914 5913 5913 5912 5912 5911 5910 5909 5909 5908 5907 5906 5905 5905 5905 5904 5904
5922 5922 5922 5921 5920 5919 5918 5917 5914 5911 5908 5906 5905 5908 5910 5912 5913 5913 5913 5912 5911 5911 5911 5912 5912 5912 5913 5913 5913 5914 5914 5913 5913 5913 5912 5911 5911 5910 5909 5908 5908 5907 5906 5905 5905 5904 5904 5903 5903
5920 5920 5920 5919 5918 5916 5915 5914 5911 5908 5904 5903 5902 5905 5908 5910 5911 5911 5911 5911 5910 5910 5911 5911 5911 5911 5912 5912 5912 5913 5913 5912 5912 5911 5911 5910 5910 5909 5908 5907 5907 5906 5905 5904 5903 5903 5902 5902 5902
5918 5917 5918 5918 5916 5913 5911 5911 5908 5905 5900 5897 5898 5902 5906 5909 5909 5909 5909 5909 5909 5909 5910 5910 5910 5910 5911 5911 5911 5911 5911 5911 5910 5910 5909 5909 5908 5908 5907 5906 5905 5904 5904 5903 5902 5901 5901 5901 5901
5914 5914 5915 5915 5913 5910 5908 5907 5904 5902 5898 5897 5898 5900 5905 5908 5907 5907 5907 5907 5907 5907 5908 5908 5909 5909 5909 5909 5909 5909 5909 5909 5909 5908 5907 5907 5906 5906 5905 5904 5903 5903 5902 5901 5900 5899 5899 5899 5899
5911 5911 5912 5912 5911 5907 5904 5901 5900 5897 5896 5898 5898 5898 5902 5905 5905 5905 5905 5905 5905 5906 5907 5907 5907 5907 5907 5907 5907 5907 5907 5906 5906 5906 5905 5904 5904 5903 5902 5902 5901 5900 5899 5898 5898 5897 5896 5897 5897
5909 5908 5908 5909 5907 5904 5900 5897 5896 5895 5895 5895 5894 5894 5900 5902 5902 5902 5902 5904 5904 5904 5905 5905 5905 5905 5905 5905 5905 5904 5904 5904 5903 5903 5902 5901 5901 5900 5899 5898 5898 5897 5896 5895 5894 5894 5894 5894 5894
5905 5905 5905 5904 5902 5900 5897 5894 5893 5892 5892 5892 5893 5892 5896 5899 5900 5900 5900 5901 5902 5902 5903 5903 5903 5903 5902 5902 5902 5902 5901 5901 5900 5900 5899 5898 5898 5897 5896 5895 5894 5893 5893 5892 5891 5891 5890 5891 5891
5901 5902 5901 5899 5897 5896 5894 5891 5890 5889 5889 5890 5891 5891 5892 5893 5896 5896 5897 5899 5900 5900 5900 5900 5900 5900 5900 5899 5899 5899 5898 5898 5897 5896 5895 5895 5894 5893 5892 5891 5891 5890 5889 5889 5888 5887 5887 5887 5887
5898 5897 5896 5895 5893 5892 5890 5889 5888 5887 5887 5888 5888 5889 5889 5889 5891 5893 5894 5897 5897 5898 5898 5898 5897 5897 5897 5896 5896 5896 5895 5894 5893 5892 5892 5891 5890 5890 5889 5888 5887 5887 5886 5886 5885 5884 5884 5884 5884
5895 5894 5892 5891 5890 5889 5888 5887 5886 5884 5884 5885 5885 5886 5885 5886 5888 5889 5890 5892 5894 5895 5895 5895 5895 5895 5894 5894 5893 5892 5892 5891 5890 5889 5888 5888 5887 5887 5886 5885 5884 5884 5883 5882 5882 5881 5881 5881 5881
5893 5891 5890 5889 5888 5886 5885 5883 5882 5881 5881 5881 5882 5881 5882 5884 5885 5886 5887 5889 5891 5892 5893 5893 5893 5892 5892 5891 5890 5890 5889 5888 5887 5886 5886 5885 5885 5884 5883 5883 5882 5881 5880 5879 5879 5878 5878 5877 5877
5892 5891 5889 5887 5885 5883 5881 5880 5878 5877 5876 5877 5877 5875 5877 5879 5880 5882 5883 5885 5886 5888 5890 5890 5890 5890 5889 5888 5888 5887 5886 5885 5885 5884 5883 5882 5882 5881 5880 5879 5878 5878 5877 5876 5876 5875 5874 5874 5874
5892 5890 5888 5886 5883 5880 5878 5876 5875 5873 5873 5872 5871 5871 5873 5875 5877 5880 5881 5882 5883 5885 5886 5886 5887 5887 5887 5886 5885 5885 5884 5883 5882 5881 5881 5880 5879 5878 5877 5876 5875 5875 5874 5873 5872 5871 5871 5870 5870
5892 5890 5888 5885 5881 5878 5875 5872 5871 5870 5869 5868 5867 5868 5869 5870 5874 5875 5877 5878 5880 5881 5882 5883 5883 5883 5883 5883 5883 5882 5882 5881 5880 5879 5878 5877 5876 5875 5874 5873 5872 5871 5870 5869 5868 5868 5867 5866 5866
5891 5889 5886 5883 5879 5876 5875 5871 5868 5867 5865 5864 5863 5864 5865 5866 5870 5871 5873 5875 5877 5878 5879 5879 5879 5880 5880 5880 5880 5880 5880 5879 5877 5876 5876 5875 5874 5872 5871 5870 5869 5868 5867 5866 5865 5864 5863 5862 5862
5890 5887 5884 5882 5878 5875 5873 5870 5867 5864 5862 5860 5860 5861 5861 5864 5865 5867 5871 5873 5874 5876 5877 5877 5878 5878 5878 5878 5878 5878 5877 5876 5876 5874 5873 5872 5871 5870 5869 5867 5866 5865 5863 5862 5861 5860 5859 5858 5858
5887 5885 5883 5881 5878 5874 5871 5869 5866 5862 5860 5859 5858 5859 5860 5862 5861 5864 5868 5871 5872 5874 5875 5876 5876 5876 5876 5876 5876 5876 5875 5874 5873 5872 5871 5870 5869 5868 5866 5865 5863 5862 5860 5859 5858 5857 5856 5854 5854
5886 5885 5882 5880 5877 5874 5870 5867 5864 5862 5860 5859 5858 5858 5859 5860 5861 5863 5865 5868 5870 5872 5873 5874 5874 5875 5875 5875 5875 5874 5874 5873 5872 5870 5869 5868 5867 5865 5864 5862 5860 5859 5857 5856 5855 5853 5852 5851 5850
5886 5884 5882 5880 5876 5873 5869 5867 5864 5861 5860 5858 5858 5858 5859 5858 5860 5861 5863 5865 5868 5870 5871 5873 5873 5874 5874 5874 5873 5873 5872 5871 5870 5869 5867 5866 5864 5863 5861 5860 5858 5856 5854 5853 5851 5850 5849 5847 5846
5885 5884 5881 5879 5875 5872 5870 5867 5864 5861 5859 5859 5858 5859 5859 5859 5860 5862 5863 5865 5866 5868 5870 5871 5872 5872 5873 5873 5872 5871 5871 5870 5869 5867 5866 5864 5862 5860 5859 5857 5855 5853 5852 5850 5848 5847 5845 5844 5843
5885 5883 5881 5878 5875 5871 5870 5868 5865 5862 5861 5859 5859 5859 5859 5860 5861 5862 5863 5864 5866 5867 5869 5870 5871 5871 5871 5871 5871 5870 5869 5868 5867 5865 5863 5862 5860 5858 5856 5854 5852 5850 5848 5847 5845 5843 5842 5840 5839
5883 5882 5880 5878 5875 5873 5871 5869 5867 5864 5862 5862 5861 5860 5860 5860 5861 5862 5863 5865 5866 5867 5868 5869 5870 5870 5870 5870 5869 5868 5868 5866 5865 5863 5861 5860 5857 5855 5853 5851 5849 5847 5845 5843 5841 5840 5838 5836 5835
5882 5880 5879 5878 5876 5874 5872 5871 5869 5867 5865 5864 5863 5862 5861 5861 5862 5863 5864 5865 5866 5867 5867 5868 5868 5869 5868 5868 5867 5867 5866 5864 5863 5861 5859 5857 5855 5853 5850 5848 5846 5844 5842 5840 5838 5836 5834 5832 5830
5880 5879 5878 5876 5875 5874 5872 5871 5871 5868 5867 5865 5864 5863 5862 5862 5863 5864 5865 5865 5866 5866 5867 5868 5868 5867 5867 5866 5866 5865 5863 5862 5860 5858 5856 5854 5852 5850 5847 5845 5843 5841 5838 5836 5834 5832 5829 5827 5825
5878 5877 5876 5875 5873 5873 5871 5871 5871 5868 5867 5865 5864 5864 5863 5864 5864 5865 5865 5865 5865 5866 5866 5866 5866 5866 5865 5864 5863 5862 5861 5859 5858 5855 5853 5851 5849 5847 5844 5842 5840 5837 5835 5832 5830 5827 5824 5822 5819
5877 5875 5875 5873 5872 5871 5870 5870 5869 5867 5866 5865 5865 5864 5864 5864 5864 5864 5865 5865 5865 5865 5865 5865 5864 5864 5863 5862 5861 5860 5858 5856 5854 5852 5850 5848 5846 5843 5841 5839 5836 5833 5831 5828 5825 5822 5819 5816 5813
5875 5874 5872 5871 5869 5868 5868 5868 5868 5866 5865 5865 5864 5864 5864 5864 5863 5863 5863 5863 5863 5863 5863 5862 5862 5861 5860 5859 5858 5856 5855 5853 5851 5849 5847 5844 5842 5839 5837 5834 5832 5829 5826 5823 5819 5816 5813 5810 5806
5871 5870 5869 5868 5867 5866 5865 5867 5865 5864 5863 5863 5863 5863 5863 5862 5862 5861 5861 5861 5861 5861 5860 5860 5859 5858 5857 5856 5854 5853 5851 5849 5847 5845 5842 5840 5837 5835 5832 5829 5826 5823 5820 5817 5813 5810 5806 5803 5799
5866 5865 5864 5864 5864 5863 5862 5865 5862 5862 5861 5860 5860 5860 5860 5859 5859 5859 5859 5858 5858 5857 5857 5856 5855 5854 5853 5852 5850 5849 5847 5845 5842 5840 5837 5835 5832 5829 5826 5823 5820 5817 5814 5810 5807 5803 5799 5795 5791